Wetterdaten: Samstag, 05.03.2016
Datum Zeit Temperatur Luftfeuchte Luftdruck Regen Wind Richtung Richtung Sonnenschein ET UV Solar Taupunkt Windchill Windben
05.03.2016 00:00 1,3 C 95 % 994,2 hPa 0,0 l/m 0,0 km/h (0 Bft) NO 42 0 min 0,000 mm 0,0 UV-I 0 W/m 0,6 C 1,3 C 0,0 km/h (0 Bft)
05.03.2016 00:05 1,3 C 95 % 993,9 hPa 0,0 l/m 0,0 km/h (0 Bft) NO 42 0 min 0,000 mm 0,0 UV-I 0 W/m 0,6 C 1,3 C 0,0 km/h (0 Bft)
05.03.2016 00:10 1,3 C 95 % 993,9 hPa 0,0 l/m 0,0 km/h (0 Bft) NO 42 0 min 0,000 mm 0,0 UV-I 0 W/m 0,6 C 1,3 C 0,0 km/h (0 Bft)
05.03.2016 00:15 1,3 C 96 % 994,5 hPa 0,0 l/m 0,0 km/h (0 Bft) NO 42 0 min 0,000 mm 0,0 UV-I 0 W/m 0,7 C 1,3 C 0,0 km/h (0 Bft)
05.03.2016 00:20 1,4 C 96 % 994,7 hPa 0,0 l/m 0,0 km/h (0 Bft) W-NW 302 0 min 0,000 mm 0,0 UV-I 0 W/m 0,8 C 1,4 C 0,0 km/h (0 Bft)
05.03.2016 00:25 1,4 C 96 % 994,8 hPa 0,0 l/m 0,0 km/h (0 Bft) W-NW 302 0 min 0,000 mm 0,0 UV-I 0 W/m 0,8 C 1,4 C 0,0 km/h (0 Bft)
05.03.2016 00:30 1,3 C 96 % 995,0 hPa 0,0 l/m 0,0 km/h (0 Bft) W-NW 302 0 min 0,000 mm 0,0 UV-I 0 W/m 0,7 C 1,3 C 0,0 km/h (0 Bft)
05.03.2016 00:35 1,3 C 96 % 995,2 hPa 0,0 l/m 0,0 km/h (0 Bft) W-SW 248 0 min 0,000 mm 0,0 UV-I 0 W/m 0,7 C 1,3 C 0,0 km/h (0 Bft)
05.03.2016 00:40 1,3 C 96 % 995,4 hPa 0,0 l/m 0,0 km/h (0 Bft) W-SW 251 0 min 0,000 mm 0,0 UV-I 0 W/m 0,7 C 1,3 C 0,0 km/h (0 Bft)
05.03.2016 00:45 1,2 C 96 % 995,3 hPa 0,0 l/m 0,3 km/h (0 Bft) W 273 0 min 0,000 mm 0,0 UV-I 0 W/m 0,6 C 1,2 C 3,2 km/h (1 Bft)
05.03.2016 00:50 1,2 C 96 % 995,1 hPa 0,0 l/m 0,0 km/h (0 Bft) SW 235 0 min 0,000 mm 0,0 UV-I 0 W/m 0,6 C 1,2 C 0,0 km/h (0 Bft)
05.03.2016 00:55 1,2 C 96 % 995,3 hPa 0,2 l/m 0,0 km/h (0 Bft) SW 235 0 min 0,000 mm 0,0 UV-I 0 W/m 0,6 C 1,2 C 0,0 km/h (0 Bft)
05.03.2016 01:00 1,2 C 96 % 995,2 hPa 0,0 l/m 0,0 km/h (0 Bft) SW 235 0 min 0,000 mm 0,0 UV-I 0 W/m 0,6 C 1,2 C 0,0 km/h (0 Bft)
05.03.2016 01:05 1,2 C 96 % 995,2 hPa 0,0 l/m 0,0 km/h (0 Bft) SW 235 0 min 0,000 mm 0,0 UV-I 0 W/m 0,6 C 1,2 C 0,0 km/h (0 Bft)
05.03.2016 01:10 1,2 C 96 % 995,0 hPa 0,2 l/m 0,0 km/h (0 Bft) SW 235 0 min 0,000 mm 0,0 UV-I 0 W/m 0,6 C 1,2 C 0,0 km/h (0 Bft)
05.03.2016 01:15 1,2 C 96 % 995,0 hPa 0,0 l/m 0,0 km/h (0 Bft) SW 235 0 min 0,000 mm 0,0 UV-I 0 W/m 0,6 C 1,2 C 0,0 km/h (0 Bft)
05.03.2016 01:20 1,2 C 96 % 994,7 hPa 0,0 l/m 0,0 km/h (0 Bft) SW 235 0 min 0,000 mm 0,0 UV-I 0 W/m 0,6 C 1,2 C 0,0 km/h (0 Bft)
05.03.2016 01:25 1,3 C 96 % 994,7 hPa 0,0 l/m 0,0 km/h (0 Bft) SW 235 0 min 0,000 mm 0,0 UV-I 0 W/m 0,7 C 1,3 C 0,0 km/h (0 Bft)
05.03.2016 01:30 1,3 C 96 % 994,4 hPa 0,0 l/m 0,0 km/h (0 Bft) SW 235 0 min 0,000 mm 0,0 UV-I 0 W/m 0,7 C 1,3 C 0,0 km/h (0 Bft)
05.03.2016 01:35 1,3 C 96 % 994,3 hPa 0,0 l/m 0,0 km/h (0 Bft) SW 235 0 min 0,000 mm 0,0 UV-I 0 W/m 0,7 C 1,3 C 0,0 km/h (0 Bft)
05.03.2016 01:40 1,3 C 96 % 994,3 hPa 0,0 l/m 0,0 km/h (0 Bft) SW 235 0 min 0,000 mm 0,0 UV-I 0 W/m 0,7 C 1,3 C 0,0 km/h (0 Bft)
05.03.2016 01:45 1,3 C 96 % 994,2 hPa 0,0 l/m 0,0 km/h (0 Bft) SW 235 0 min 0,000 mm 0,0 UV-I 0 W/m 0,7 C 1,3 C 0,0 km/h (0 Bft)
05.03.2016 01:50 1,3 C 96 % 994,2 hPa 0,0 l/m 0,0 km/h (0 Bft) SW 235 0 min 0,000 mm 0,0 UV-I 0 W/m 0,7 C 1,3 C 0,0 km/h (0 Bft)
05.03.2016 01:55 1,4 C 96 % 994,2 hPa 0,0 l/m 0,0 km/h (0 Bft) SW 235 0 min 0,000 mm 0,0 UV-I 0 W/m 0,8 C 1,4 C 0,0 km/h (0 Bft)
05.03.2016 02:00 1,4 C 96 % 994,2 hPa 0,0 l/m 0,0 km/h (0 Bft) SW 235 0 min 0,000 mm 0,0 UV-I 0 W/m 0,8 C 1,4 C 0,0 km/h (0 Bft)
05.03.2016 02:05 1,4 C 96 % 994,4 hPa 0,0 l/m 0,0 km/h (0 Bft) SW 235 0 min 0,000 mm 0,0 UV-I 0 W/m 0,8 C 1,4 C 0,0 km/h (0 Bft)
05.03.2016 02:10 1,4 C 96 % 994,5 hPa 0,0 l/m 0,0 km/h (0 Bft) SW 235 0 min 0,000 mm 0,0 UV-I 0 W/m 0,8 C 1,4 C 0,0 km/h (0 Bft)
05.03.2016 02:15 1,5 C 96 % 994,5 hPa 0,0 l/m 0,0 km/h (0 Bft) SW 235 0 min 0,000 mm 0,0 UV-I 0 W/m 0,9 C 1,5 C 0,0 km/h (0 Bft)
05.03.2016 02:20 1,6 C 96 % 994,5 hPa 0,0 l/m 0,0 km/h (0 Bft) SW 235 0 min 0,000 mm 0,0 UV-I 0 W/m 1,0 C 1,6 C 0,0 km/h (0 Bft)
05.03.2016 02:25 1,6 C 96 % 994,4 hPa 0,0 l/m 0,0 km/h (0 Bft) SW 235 0 min 0,000 mm 0,0 UV-I 0 W/m 1,0 C 1,6 C 0,0 km/h (0 Bft)
05.03.2016 02:30 1,7 C 96 % 994,3 hPa 0,0 l/m 0,0 km/h (0 Bft) SW 235 0 min 0,000 mm 0,0 UV-I 0 W/m 1,1 C 1,7 C 0,0 km/h (0 Bft)
05.03.2016 02:35 1,7 C 96 % 994,2 hPa 0,0 l/m 0,0 km/h (0 Bft) SW 235 0 min 0,000 mm 0,0 UV-I 0 W/m 1,1 C 1,7 C 0,0 km/h (0 Bft)
05.03.2016 02:40 1,7 C 96 % 994,4 hPa 0,0 l/m 0,0 km/h (0 Bft) SW 235 0 min 0,000 mm 0,0 UV-I 0 W/m 1,1 C 1,7 C 0,0 km/h (0 Bft)
05.03.2016 02:45 1,7 C 96 % 994,3 hPa 0,0 l/m 0,0 km/h (0 Bft) SW 235 0 min 0,000 mm 0,0 UV-I 0 W/m 1,1 C 1,7 C 0,0 km/h (0 Bft)
05.03.2016 02:50 1,6 C 96 % 994,2 hPa 0,2 l/m 0,0 km/h (0 Bft) SW 235 0 min 0,000 mm 0,0 UV-I 0 W/m 1,0 C 1,6 C 0,0 km/h (0 Bft)
05.03.2016 02:55 1,6 C 96 % 994,0 hPa 0,0 l/m 0,0 km/h (0 Bft) SW 235 0 min 0,000 mm 0,0 UV-I 0 W/m 1,0 C 1,6 C 0,0 km/h (0 Bft)
05.03.2016 03:00 1,6 C 96 % 994,1 hPa 0,0 l/m 0,0 km/h (0 Bft) SW 235 0 min 0,000 mm 0,0 UV-I 0 W/m 1,0 C 1,6 C 0,0 km/h (0 Bft)
05.03.2016 03:05 1,7 C 96 % 994,3 hPa 0,0 l/m 0,0 km/h (0 Bft) SW 235 0 min 0,000 mm 0,0 UV-I 0 W/m 1,1 C 1,7 C 0,0 km/h (0 Bft)
05.03.2016 03:10 1,7 C 96 % 994,3 hPa 0,0 l/m 0,0 km/h (0 Bft) SW 235 0 min 0,000 mm 0,0 UV-I 0 W/m 1,1 C 1,7 C 0,0 km/h (0 Bft)
05.03.2016 03:15 1,7 C 96 % 994,3 hPa 0,0 l/m 0,0 km/h (0 Bft) SW 235 0 min 0,000 mm 0,0 UV-I 0 W/m 1,1 C 1,7 C 0,0 km/h (0 Bft)
05.03.2016 03:20 1,7 C 96 % 994,0 hPa 0,0 l/m 0,0 km/h (0 Bft) SW 235 0 min 0,000 mm 0,0 UV-I 0 W/m 1,1 C 1,7 C 0,0 km/h (0 Bft)
05.03.2016 03:25 1,7 C 96 % 994,0 hPa 0,0 l/m 0,0 km/h (0 Bft) SW 235 0 min 0,000 mm 0,0 UV-I 0 W/m 1,1 C 1,7 C 0,0 km/h (0 Bft)
05.03.2016 03:30 1,7 C 96 % 993,8 hPa 0,0 l/m 0,0 km/h (0 Bft) SW 235 0 min 0,000 mm 0,0 UV-I 0 W/m 1,1 C 1,7 C 0,0 km/h (0 Bft)
05.03.2016 03:35 1,7 C 96 % 994,0 hPa 0,0 l/m 0,0 km/h (0 Bft) SW 235 0 min 0,000 mm 0,0 UV-I 0 W/m 1,1 C 1,7 C 0,0 km/h (0 Bft)
05.03.2016 03:40 1,7 C 96 % 994,0 hPa 0,0 l/m 0,0 km/h (0 Bft) SW 235 0 min 0,000 mm 0,0 UV-I 0 W/m 1,1 C 1,7 C 0,0 km/h (0 Bft)
05.03.2016 03:45 1,7 C 96 % 993,9 hPa 0,2 l/m 0,0 km/h (0 Bft) SW 235 0 min 0,000 mm 0,0 UV-I 0 W/m 1,1 C 1,7 C 0,0 km/h (0 Bft)
05.03.2016 03:50 1,7 C 96 % 993,9 hPa 0,0 l/m 0,0 km/h (0 Bft) SW 235 0 min 0,000 mm 0,0 UV-I 0 W/m 1,1 C 1,7 C 0,0 km/h (0 Bft)
05.03.2016 03:55 1,7 C 96 % 993,8 hPa 0,0 l/m 0,0 km/h (0 Bft) SW 235 0 min 0,000 mm 0,0 UV-I 0 W/m 1,1 C 1,7 C 0,0 km/h (0 Bft)
05.03.2016 04:00 1,8 C 96 % 993,7 hPa 0,0 l/m 0,0 km/h (0 Bft) SW 235 0 min 0,000 mm 0,0 UV-I 0 W/m 1,2 C 1,8 C 0,0 km/h (0 Bft)
05.03.2016 04:05 1,8 C 96 % 993,7 hPa 0,0 l/m 0,0 km/h (0 Bft) SW 235 0 min 0,000 mm 0,0 UV-I 0 W/m 1,2 C 1,8 C 0,0 km/h (0 Bft)
05.03.2016 04:10 1,8 C 96 % 993,7 hPa 0,0 l/m 0,0 km/h (0 Bft) SW 235 0 min 0,000 mm 0,0 UV-I 0 W/m 1,2 C 1,8 C 0,0 km/h (0 Bft)
05.03.2016 04:15 1,8 C 96 % 993,8 hPa 0,0 l/m 0,0 km/h (0 Bft) SW 235 0 min 0,000 mm 0,0 UV-I 0 W/m 1,2 C 1,8 C 0,0 km/h (0 Bft)
05.03.2016 04:20 1,7 C 96 % 993,8 hPa 0,0 l/m 0,0 km/h (0 Bft) SW 235 0 min 0,000 mm 0,0 UV-I 0 W/m 1,1 C 1,7 C 0,0 km/h (0 Bft)
05.03.2016 04:25 1,6 C 96 % 993,8 hPa 0,0 l/m 0,0 km/h (0 Bft) SW 235 0 min 0,000 mm 0,0 UV-I 0 W/m 1,0 C 1,6 C 0,0 km/h (0 Bft)
05.03.2016 04:30 1,6 C 96 % 993,9 hPa 0,0 l/m 0,0 km/h (0 Bft) SW 235 0 min 0,000 mm 0,0 UV-I 0 W/m 1,0 C 1,6 C 0,0 km/h (0 Bft)
05.03.2016 04:35 1,6 C 96 % 994,0 hPa 0,0 l/m 0,0 km/h (0 Bft) SW 235 0 min 0,000 mm 0,0 UV-I 0 W/m 1,0 C 1,6 C 0,0 km/h (0 Bft)
05.03.2016 04:40 1,6 C 96 % 993,8 hPa 0,0 l/m 0,0 km/h (0 Bft) SW 235 0 min 0,000 mm 0,0 UV-I 0 W/m 1,0 C 1,6 C 0,0 km/h (0 Bft)
05.03.2016 04:45 1,6 C 96 % 993,8 hPa 0,0 l/m 0,0 km/h (0 Bft) SW 235 0 min 0,000 mm 0,0 UV-I 0 W/m 1,0 C 1,6 C 0,0 km/h (0 Bft)
05.03.2016 04:50 1,6 C 96 % 993,8 hPa 0,2 l/m 0,0 km/h (0 Bft) SW 235 0 min 0,000 mm 0,0 UV-I 0 W/m 1,0 C 1,6 C 0,0 km/h (0 Bft)
05.03.2016 04:55 1,6 C 96 % 993,7 hPa 0,0 l/m 0,0 km/h (0 Bft) SW 235 0 min 0,000 mm 0,0 UV-I 0 W/m 1,0 C 1,6 C 0,0 km/h (0 Bft)
05.03.2016 05:00 1,6 C 96 % 993,7 hPa 0,0 l/m 0,0 km/h (0 Bft) SW 235 0 min 0,000 mm 0,0 UV-I 0 W/m 1,0 C 1,6 C 0,0 km/h (0 Bft)
05.03.2016 05:05 1,6 C 96 % 993,7 hPa 0,0 l/m 0,0 km/h (0 Bft) SW 235 0 min 0,000 mm 0,0 UV-I 0 W/m 1,0 C 1,6 C 0,0 km/h (0 Bft)
05.03.2016 05:10 1,6 C 96 % 993,8 hPa 0,0 l/m 0,0 km/h (0 Bft) SW 235 0 min 0,000 mm 0,0 UV-I 0 W/m 1,0 C 1,6 C 0,0 km/h (0 Bft)
05.03.2016 05:15 1,6 C 96 % 993,8 hPa 0,0 l/m 0,0 km/h (0 Bft) SW 235 0 min 0,000 mm 0,0 UV-I 0 W/m 1,0 C 1,6 C 0,0 km/h (0 Bft)
05.03.2016 05:20 1,5 C 96 % 993,8 hPa 0,2 l/m 0,0 km/h (0 Bft) SW 235 0 min 0,000 mm 0,0 UV-I 0 W/m 0,9 C 1,5 C 0,0 km/h (0 Bft)
05.03.2016 05:25 1,5 C 96 % 993,9 hPa 0,0 l/m 0,0 km/h (0 Bft) SW 235 0 min 0,000 mm 0,0 UV-I 0 W/m 0,9 C 1,5 C 0,0 km/h (0 Bft)
05.03.2016 05:30 1,6 C 96 % 993,9 hPa 0,0 l/m 0,0 km/h (0 Bft) SW 235 0 min 0,000 mm 0,0 UV-I 0 W/m 1,0 C 1,6 C 0,0 km/h (0 Bft)
05.03.2016 05:35 1,6 C 96 % 993,9 hPa 0,0 l/m 0,0 km/h (0 Bft) SW 235 0 min 0,000 mm 0,0 UV-I 0 W/m 1,0 C 1,6 C 0,0 km/h (0 Bft)
05.03.2016 05:40 1,6 C 96 % 993,9 hPa 0,2 l/m 0,0 km/h (0 Bft) SW 235 0 min 0,000 mm 0,0 UV-I 0 W/m 1,0 C 1,6 C 0,0 km/h (0 Bft)
05.03.2016 05:45 1,6 C 96 % 993,8 hPa 0,0 l/m 0,0 km/h (0 Bft) SW 235 0 min 0,000 mm 0,0 UV-I 0 W/m 1,0 C 1,6 C 0,0 km/h (0 Bft)
05.03.2016 05:50 1,6 C 96 % 993,8 hPa 0,0 l/m 0,0 km/h (0 Bft) SW 235 0 min 0,000 mm 0,0 UV-I 0 W/m 1,0 C 1,6 C 0,0 km/h (0 Bft)
05.03.2016 05:55 1,5 C 96 % 993,8 hPa 0,0 l/m 0,0 km/h (0 Bft) SW 235 0 min 0,000 mm 0,0 UV-I 0 W/m 0,9 C 1,5 C 0,0 km/h (0 Bft)
05.03.2016 06:00 1,6 C 96 % 993,8 hPa 0,0 l/m 0,0 km/h (0 Bft) SW 235 0 min 0,000 mm 0,0 UV-I 0 W/m 1,0 C 1,6 C 0,0 km/h (0 Bft)
05.03.2016 06:05 1,5 C 96 % 993,7 hPa 0,2 l/m 0,0 km/h (0 Bft) SW 235 0 min 0,000 mm 0,0 UV-I 0 W/m 0,9 C 1,5 C 0,0 km/h (0 Bft)
05.03.2016 06:10 1,5 C 96 % 993,7 hPa 0,0 l/m 0,0 km/h (0 Bft) SW 235 0 min 0,000 mm 0,0 UV-I 0 W/m 0,9 C 1,5 C 0,0 km/h (0 Bft)
05.03.2016 06:15 1,5 C 96 % 993,7 hPa 0,0 l/m 0,0 km/h (0 Bft) SW 235 0 min 0,000 mm 0,0 UV-I 0 W/m 0,9 C 1,5 C 0,0 km/h (0 Bft)
05.03.2016 06:20 1,4 C 96 % 993,7 hPa 0,0 l/m 0,0 km/h (0 Bft) SW 235 0 min 0,000 mm 0,0 UV-I 0 W/m 0,8 C 1,4 C 0,0 km/h (0 Bft)
05.03.2016 06:25 1,4 C 96 % 993,8 hPa 0,0 l/m 0,0 km/h (0 Bft) SW 235 0 min 0,000 mm 0,0 UV-I 0 W/m 0,8 C 1,4 C 0,0 km/h (0 Bft)
05.03.2016 06:30 1,4 C 96 % 993,8 hPa 0,0 l/m 0,0 km/h (0 Bft) SW 235 0 min 0,000 mm 0,0 UV-I 0 W/m 0,8 C 1,4 C 0,0 km/h (0 Bft)
05.03.2016 06:35 1,4 C 96 % 993,9 hPa 0,2 l/m 0,0 km/h (0 Bft) SW 235 0 min 0,000 mm 0,0 UV-I 0 W/m 0,8 C 1,4 C 0,0 km/h (0 Bft)
05.03.2016 06:40 1,4 C 96 % 993,9 hPa 0,0 l/m 0,0 km/h (0 Bft) SW 235 0 min 0,000 mm 0,0 UV-I 0 W/m 0,8 C 1,4 C 0,0 km/h (0 Bft)
05.03.2016 06:45 1,4 C 96 % 994,1 hPa 0,0 l/m 0,0 km/h (0 Bft) SW 235 0 min 0,000 mm 0,0 UV-I 0 W/m 0,8 C 1,4 C 0,0 km/h (0 Bft)
05.03.2016 06:50 1,5 C 96 % 993,8 hPa 0,0 l/m 0,0 km/h (0 Bft) SW 235 0 min 0,000 mm 0,0 UV-I 0 W/m 0,9 C 1,5 C 0,0 km/h (0 Bft)
05.03.2016 06:55 1,6 C 96 % 993,7 hPa 0,0 l/m 0,0 km/h (0 Bft) SW 235 0 min 0,000 mm 0,0 UV-I 0 W/m 1,0 C 1,6 C 0,0 km/h (0 Bft)
05.03.2016 07:00 1,6 C 96 % 993,6 hPa 0,0 l/m 0,0 km/h (0 Bft) SW 235 0 min 0,000 mm 0,0 UV-I 0 W/m 1,0 C 1,6 C 0,0 km/h (0 Bft)
05.03.2016 07:05 1,6 C 96 % 993,6 hPa 0,0 l/m 0,0 km/h (0 Bft) SW 235 0 min 0,000 mm 0,0 UV-I 0 W/m 1,0 C 1,6 C 0,0 km/h (0 Bft)
05.03.2016 07:10 1,6 C 96 % 993,6 hPa 0,0 l/m 0,0 km/h (0 Bft) SW 235 0 min 0,000 mm 0,0 UV-I 0 W/m 1,0 C 1,6 C 0,0 km/h (0 Bft)
05.03.2016 07:15 1,6 C 96 % 993,6 hPa 0,0 l/m 0,0 km/h (0 Bft) SW 235 0 min 0,000 mm 0,0 UV-I 0 W/m 1,0 C 1,6 C 0,0 km/h (0 Bft)
05.03.2016 07:20 1,6 C 96 % 993,7 hPa 0,0 l/m 0,0 km/h (0 Bft) SW 235 0 min 0,000 mm 0,0 UV-I 0 W/m 1,0 C 1,6 C 0,0 km/h (0 Bft)
05.03.2016 07:25 1,7 C 96 % 993,9 hPa 0,0 l/m 0,0 km/h (0 Bft) SW 235 0 min 0,000 mm 0,0 UV-I 0 W/m 1,1 C 1,7 C 0,0 km/h (0 Bft)
05.03.2016 07:30 1,7 C 96 % 993,9 hPa 0,0 l/m 0,0 km/h (0 Bft) SW 235 0 min 0,000 mm 0,0 UV-I 0 W/m 1,1 C 1,7 C 0,0 km/h (0 Bft)
05.03.2016 07:35 1,7 C 96 % 993,9 hPa 0,2 l/m 0,0 km/h (0 Bft) SW 235 0 min 0,000 mm 0,0 UV-I 2 W/m 1,1 C 1,7 C 0,0 km/h (0 Bft)
05.03.2016 07:40 1,8 C 96 % 994,1 hPa 0,0 l/m 0,0 km/h (0 Bft) SW 235 0 min 0,000 mm 0,0 UV-I 5 W/m 1,2 C 1,8 C 0,0 km/h (0 Bft)
05.03.2016 07:45 1,8 C 96 % 994,2 hPa 0,0 l/m 0,0 km/h (0 Bft) SW 235 0 min 0,000 mm 0,0 UV-I 5 W/m 1,2 C 1,8 C 0,0 km/h (0 Bft)
05.03.2016 07:50 1,8 C 96 % 994,1 hPa 0,0 l/m 0,0 km/h (0 Bft) SW 235 0 min 0,000 mm 0,0 UV-I 6 W/m 1,2 C 1,8 C 0,0 km/h (0 Bft)
05.03.2016 07:55 1,8 C 96 % 994,2 hPa 0,2 l/m 0,0 km/h (0 Bft) SW 235 0 min 0,000 mm 0,0 UV-I 8 W/m 1,2 C 1,8 C 0,0 km/h (0 Bft)
05.03.2016 08:00 1,9 C 96 % 994,2 hPa 0,0 l/m 0,0 km/h (0 Bft) SW 235 0 min 0,000 mm 0,0 UV-I 10 W/m 1,3 C 1,9 C 0,0 km/h (0 Bft)
05.03.2016 08:05 1,9 C 96 % 994,3 hPa 0,0 l/m 0,0 km/h (0 Bft) SW 235 0 min 0,000 mm 0,0 UV-I 11 W/m 1,3 C 1,9 C 0,0 km/h (0 Bft)
05.03.2016 08:10 1,9 C 96 % 994,3 hPa 0,0 l/m 0,0 km/h (0 Bft) SW 235 0 min 0,000 mm 0,0 UV-I 12 W/m 1,3 C 1,9 C 0,0 km/h (0 Bft)
05.03.2016 08:15 1,9 C 96 % 994,4 hPa 0,0 l/m 0,0 km/h (0 Bft) SW 235 0 min 0,000 mm 0,0 UV-I 13 W/m 1,3 C 1,9 C 0,0 km/h (0 Bft)
05.03.2016 08:20 1,9 C 96 % 994,4 hPa 0,0 l/m 0,0 km/h (0 Bft) SW 235 0 min 0,000 mm 0,0 UV-I 13 W/m 1,3 C 1,9 C 0,0 km/h (0 Bft)
05.03.2016 08:25 1,9 C 96 % 994,3 hPa 0,0 l/m 0,0 km/h (0 Bft) SW 235 0 min 0,000 mm 0,0 UV-I 15 W/m 1,3 C 1,9 C 0,0 km/h (0 Bft)
05.03.2016 08:30 2,0 C 96 % 994,2 hPa 0,0 l/m 0,0 km/h (0 Bft) SW 235 0 min 0,000 mm 0,0 UV-I 18 W/m 1,4 C 2,0 C 0,0 km/h (0 Bft)
05.03.2016 08:35 2,1 C 96 % 994,2 hPa 0,0 l/m 0,0 km/h (0 Bft) SW 235 0 min 0,000 mm 0,0 UV-I 23 W/m 1,5 C 2,1 C 0,0 km/h (0 Bft)
05.03.2016 08:40 2,1 C 96 % 994,2 hPa 0,0 l/m 0,0 km/h (0 Bft) SW 235 0 min 0,000 mm 0,0 UV-I 29 W/m 1,5 C 2,1 C 0,0 km/h (0 Bft)
05.03.2016 08:45 2,1 C 96 % 994,3 hPa 0,0 l/m 0,0 km/h (0 Bft) SW 235 0 min 0,000 mm 0,0 UV-I 30 W/m 1,5 C 2,1 C 0,0 km/h (0 Bft)
05.03.2016 08:50 2,1 C 96 % 994,4 hPa 0,0 l/m 0,0 km/h (0 Bft) SW 235 0 min 0,000 mm 0,0 UV-I 27 W/m 1,5 C 2,1 C 0,0 km/h (0 Bft)
05.03.2016 08:55 2,2 C 96 % 994,4 hPa 0,0 l/m 0,0 km/h (0 Bft) SW 235 0 min 0,000 mm 0,0 UV-I 32 W/m 1,6 C 2,2 C 0,0 km/h (0 Bft)
05.03.2016 09:00 2,2 C 96 % 994,4 hPa 0,0 l/m 0,0 km/h (0 Bft) SW 235 0 min 0,000 mm 0,0 UV-I 38 W/m 1,6 C 2,2 C 0,0 km/h (0 Bft)
05.03.2016 09:05 2,3 C 96 % 994,3 hPa 0,0 l/m 0,0 km/h (0 Bft) SW 235 0 min 0,000 mm 0,0 UV-I 43 W/m 1,7 C 2,3 C 0,0 km/h (0 Bft)
05.03.2016 09:10 2,4 C 96 % 994,2 hPa 0,0 l/m 0,0 km/h (0 Bft) SW 235 0 min 0,000 mm 0,0 UV-I 50 W/m 1,8 C 2,4 C 0,0 km/h (0 Bft)
05.03.2016 09:15 2,4 C 96 % 994,3 hPa 0,0 l/m 0,0 km/h (0 Bft) SW 235 0 min 0,000 mm 0,0 UV-I 47 W/m 1,8 C 2,4 C 0,0 km/h (0 Bft)
05.03.2016 09:20 2,4 C 96 % 994,3 hPa 0,0 l/m 0,0 km/h (0 Bft) SW 235 0 min 0,000 mm 0,0 UV-I 54 W/m 1,8 C 2,4 C 0,0 km/h (0 Bft)
05.03.2016 09:25 2,4 C 96 % 994,2 hPa 0,0 l/m 0,0 km/h (0 Bft) SW 235 0 min 0,000 mm 0,0 UV-I 52 W/m 1,8 C 2,4 C 0,0 km/h (0 Bft)
05.03.2016 09:30 2,5 C 96 % 994,3 hPa 0,0 l/m 0,0 km/h (0 Bft) SW 235 0 min 0,000 mm 0,0 UV-I 39 W/m 1,9 C 2,5 C 0,0 km/h (0 Bft)
05.03.2016 09:35 2,5 C 96 % 994,5 hPa 0,0 l/m 0,0 km/h (0 Bft) S-SW 207 0 min 0,000 mm 0,0 UV-I 42 W/m 1,9 C 2,5 C 0,0 km/h (0 Bft)
05.03.2016 09:40 2,4 C 96 % 994,4 hPa 0,0 l/m 0,0 km/h (0 Bft) W 273 0 min 0,000 mm 0,0 UV-I 43 W/m 1,8 C 2,4 C 0,0 km/h (0 Bft)
05.03.2016 09:45 2,4 C 96 % 994,4 hPa 0,0 l/m 0,0 km/h (0 Bft) W 265 0 min 0,000 mm 0,0 UV-I 53 W/m 1,8 C 2,4 C 0,0 km/h (0 Bft)
05.03.2016 09:50 2,4 C 96 % 994,6 hPa 0,0 l/m 0,0 km/h (0 Bft) W 265 0 min 0,000 mm 0,0 UV-I 48 W/m 1,8 C 2,4 C 0,0 km/h (0 Bft)
05.03.2016 09:55 2,4 C 96 % 994,6 hPa 0,0 l/m 0,0 km/h (0 Bft) W 265 0 min 0,000 mm 0,0 UV-I 43 W/m 1,8 C 2,4 C 0,0 km/h (0 Bft)
05.03.2016 10:00 2,6 C 96 % 994,6 hPa 0,0 l/m 0,0 km/h (0 Bft) W 265 0 min 0,000 mm 0,0 UV-I 45 W/m 2,0 C 2,6 C 0,0 km/h (0 Bft)
05.03.2016 10:05 2,8 C 96 % 994,6 hPa 0,0 l/m 0,0 km/h (0 Bft) S 180 0 min 0,025 mm 0,0 UV-I 56 W/m 2,2 C 2,8 C 0,0 km/h (0 Bft)
05.03.2016 10:10 3,0 C 97 % 994,6 hPa 0,0 l/m 0,0 km/h (0 Bft) S 180 0 min 0,000 mm 0,4 UV-I 76 W/m 2,6 C 3,0 C 0,0 km/h (0 Bft)
05.03.2016 10:15 3,1 C 97 % 994,5 hPa 0,0 l/m 0,0 km/h (0 Bft) S 180 0 min 0,000 mm 0,5 UV-I 87 W/m 2,7 C 3,1 C 0,0 km/h (0 Bft)
05.03.2016 10:20 3,2 C 97 % 994,4 hPa 0,0 l/m 0,0 km/h (0 Bft) S 180 0 min 0,000 mm 0,6 UV-I 95 W/m 2,8 C 3,2 C 0,0 km/h (0 Bft)
05.03.2016 10:25 3,2 C 97 % 994,4 hPa 0,0 l/m 0,0 km/h (0 Bft) S 180 0 min 0,000 mm 0,5 UV-I 85 W/m 2,8 C 3,2 C 0,0 km/h (0 Bft)
05.03.2016 10:30 3,3 C 97 % 994,6 hPa 0,0 l/m 0,0 km/h (0 Bft) S 180 0 min 0,000 mm 0,5 UV-I 85 W/m 2,9 C 3,3 C 0,0 km/h (0 Bft)
05.03.2016 10:35 3,4 C 97 % 994,9 hPa 0,0 l/m 0,0 km/h (0 Bft) SW 224 0 min 0,000 mm 0,3 UV-I 65 W/m 3,0 C 3,4 C 0,0 km/h (0 Bft)
05.03.2016 10:40 3,5 C 97 % 994,8 hPa 0,0 l/m 0,4 km/h (0 Bft) SW 221 0 min 0,000 mm 0,6 UV-I 83 W/m 3,1 C 3,5 C 6,4 km/h (2 Bft)
05.03.2016 10:45 3,4 C 97 % 994,9 hPa 0,0 l/m 0,1 km/h (0 Bft) W-NW 290 0 min 0,000 mm 0,7 UV-I 106 W/m 3,0 C 3,4 C 3,2 km/h (1 Bft)
05.03.2016 10:50 3,6 C 97 % 994,8 hPa 0,0 l/m 0,3 km/h (0 Bft) W-NW 282 0 min 0,000 mm 0,6 UV-I 100 W/m 3,2 C 3,6 C 3,2 km/h (1 Bft)
05.03.2016 10:55 3,6 C 96 % 994,8 hPa 0,0 l/m 0,0 km/h (0 Bft) W 269 0 min 0,000 mm 0,7 UV-I 107 W/m 3,0 C 3,6 C 0,0 km/h (0 Bft)
05.03.2016 11:00 3,7 C 96 % 994,8 hPa 0,0 l/m 0,0 km/h (0 Bft) W-NW 300 0 min 0,000 mm 0,7 UV-I 107 W/m 3,1 C 3,7 C 0,0 km/h (0 Bft)
05.03.2016 11:05 3,7 C 96 % 994,8 hPa 0,0 l/m 0,2 km/h (0 Bft) W-SW 238 0 min 0,026 mm 0,7 UV-I 125 W/m 3,1 C 3,7 C 3,2 km/h (1 Bft)
05.03.2016 11:10 3,8 C 96 % 994,9 hPa 0,0 l/m 0,0 km/h (0 Bft) S-SW 210 0 min 0,000 mm 0,7 UV-I 116 W/m 3,2 C 3,8 C 0,0 km/h (0 Bft)
05.03.2016 11:15 3,9 C 96 % 995,0 hPa 0,0 l/m 0,3 km/h (0 Bft) NW 313 0 min 0,000 mm 0,7 UV-I 105 W/m 3,3 C 3,9 C 4,8 km/h (1 Bft)
05.03.2016 11:20 4,0 C 95 % 995,2 hPa 0,0 l/m 1,8 km/h (1 Bft) S 182 0 min 0,000 mm 0,7 UV-I 108 W/m 3,3 C 4,0 C 8,0 km/h (2 Bft)
05.03.2016 11:25 4,1 C 95 % 995,2 hPa 0,0 l/m 0,7 km/h (0 Bft) SO 136 0 min 0,000 mm 0,7 UV-I 101 W/m 3,4 C 4,1 C 6,4 km/h (2 Bft)
05.03.2016 11:30 4,1 C 95 % 995,2 hPa 0,0 l/m 1,2 km/h (1 Bft) SW 234 0 min 0,000 mm 0,7 UV-I 118 W/m 3,4 C 4,1 C 6,4 km/h (2 Bft)
05.03.2016 11:35 4,2 C 94 % 995,3 hPa 0,0 l/m 3,9 km/h (1 Bft) W-SW 248 0 min 0,000 mm 0,9 UV-I 128 W/m 3,3 C 4,2 C 11,3 km/h (2 Bft)
05.03.2016 11:40 4,2 C 93 % 995,3 hPa 0,0 l/m 2,5 km/h (1 Bft) W 260 0 min 0,000 mm 0,7 UV-I 97 W/m 3,2 C 4,2 C 9,7 km/h (2 Bft)
05.03.2016 11:45 4,2 C 93 % 995,4 hPa 0,0 l/m 3,1 km/h (1 Bft) S-SW 208 0 min 0,000 mm 0,6 UV-I 93 W/m 3,2 C 4,2 C 9,7 km/h (2 Bft)
05.03.2016 11:50 4,2 C 93 % 995,4 hPa 0,0 l/m 2,7 km/h (1 Bft) S 171 0 min 0,000 mm 0,8 UV-I 122 W/m 3,2 C 4,2 C 9,7 km/h (2 Bft)
05.03.2016 11:55 4,2 C 92 % 995,5 hPa 0,0 l/m 3,7 km/h (1 Bft) S-SW 205 0 min 0,000 mm 0,9 UV-I 134 W/m 3,0 C 4,2 C 12,9 km/h (3 Bft)
05.03.2016 12:00 4,2 C 92 % 995,5 hPa 0,0 l/m 4,3 km/h (1 Bft) W-NW 296 0 min 0,000 mm 0,8 UV-I 119 W/m 3,0 C 4,2 C 12,9 km/h (3 Bft)
05.03.2016 12:05 4,2 C 92 % 995,4 hPa 0,0 l/m 2,1 km/h (1 Bft) W 269 0 min 0,051 mm 0,6 UV-I 72 W/m 3,0 C 4,2 C 8,0 km/h (2 Bft)
05.03.2016 12:10 4,2 C 92 % 995,5 hPa 0,0 l/m 1,9 km/h (1 Bft) S-SW 213 0 min 0,000 mm 0,6 UV-I 84 W/m 3,0 C 4,2 C 4,8 km/h (1 Bft)
05.03.2016 12:15 4,2 C 92 % 995,5 hPa 0,0 l/m 2,0 km/h (1 Bft) W-SW 240 0 min 0,000 mm 0,6 UV-I 92 W/m 3,0 C 4,2 C 6,4 km/h (2 Bft)
05.03.2016 12:20 4,2 C 91 % 995,5 hPa 0,0 l/m 1,8 km/h (1 Bft) W 269 0 min 0,000 mm 0,7 UV-I 105 W/m 2,9 C 4,2 C 8,0 km/h (2 Bft)
05.03.2016 12:25 4,2 C 91 % 995,5 hPa 0,0 l/m 1,1 km/h (1 Bft) W 262 0 min 0,000 mm 0,7 UV-I 94 W/m 2,9 C 4,2 C 4,8 km/h (1 Bft)
05.03.2016 12:30 4,2 C 91 % 995,4 hPa 0,0 l/m 1,6 km/h (1 Bft) W 267 0 min 0,000 mm 0,5 UV-I 68 W/m 2,9 C 4,2 C 9,7 km/h (2 Bft)
05.03.2016 12:35 4,2 C 91 % 995,4 hPa 0,0 l/m 3,5 km/h (1 Bft) W 260 0 min 0,000 mm 0,3 UV-I 59 W/m 2,9 C 4,2 C 11,3 km/h (2 Bft)
05.03.2016 12:40 4,1 C 92 % 995,3 hPa 0,0 l/m 2,9 km/h (1 Bft) W-SW 240 0 min 0,000 mm 0,5 UV-I 69 W/m 2,9 C 4,1 C 9,7 km/h (2 Bft)
05.03.2016 12:45 4,0 C 91 % 995,3 hPa 0,0 l/m 3,5 km/h (1 Bft) SW 229 0 min 0,000 mm 0,8 UV-I 112 W/m 2,7 C 4,0 C 8,0 km/h (2 Bft)
05.03.2016 12:50 4,0 C 92 % 995,2 hPa 0,0 l/m 2,2 km/h (1 Bft) W-SW 251 0 min 0,000 mm 1,2 UV-I 189 W/m 2,8 C 4,0 C 4,8 km/h (1 Bft)
05.03.2016 12:55 4,2 C 92 % 995,1 hPa 0,0 l/m 2,1 km/h (1 Bft) SW 218 0 min 0,000 mm 1,2 UV-I 201 W/m 3,0 C 4,2 C 8,0 km/h (2 Bft)
05.03.2016 13:00 4,2 C 91 % 995,1 hPa 0,0 l/m 2,7 km/h (1 Bft) W-SW 250 0 min 0,000 mm 1,2 UV-I 205 W/m 2,9 C 4,2 C 8,0 km/h (2 Bft)
05.03.2016 13:05 4,3 C 90 % 995,0 hPa 0,0 l/m 4,3 km/h (1 Bft) W 272 0 min 0,050 mm 1,0 UV-I 171 W/m 2,8 C 4,3 C 9,7 km/h (2 Bft)
05.03.2016 13:10 4,4 C 90 % 994,8 hPa 0,0 l/m 2,3 km/h (1 Bft) W-SW 247 0 min 0,000 mm 0,7 UV-I 104 W/m 2,9 C 4,4 C 9,7 km/h (2 Bft)
05.03.2016 13:15 4,4 C 90 % 994,7 hPa 0,0 l/m 2,0 km/h (1 Bft) W 259 0 min 0,000 mm 0,6 UV-I 107 W/m 2,9 C 4,4 C 8,0 km/h (2 Bft)
05.03.2016 13:20 4,4 C 90 % 994,8 hPa 0,0 l/m 1,0 km/h (0 Bft) W 261 0 min 0,000 mm 0,8 UV-I 128 W/m 2,9 C 4,4 C 6,4 km/h (2 Bft)
05.03.2016 13:25 4,4 C 89 % 995,1 hPa 0,0 l/m 3,4 km/h (1 Bft) SW 227 0 min 0,000 mm 0,7 UV-I 115 W/m 2,7 C 4,4 C 9,7 km/h (2 Bft)
05.03.2016 13:30 4,4 C 88 % 995,3 hPa 0,0 l/m 5,2 km/h (1 Bft) W-SW 254 0 min 0,000 mm 0,8 UV-I 140 W/m 2,6 C 4,4 C 14,5 km/h (3 Bft)
05.03.2016 13:35 4,5 C 88 % 995,3 hPa 0,0 l/m 2,7 km/h (1 Bft) W 269 0 min 0,000 mm 1,0 UV-I 170 W/m 2,7 C 4,5 C 8,0 km/h (2 Bft)
05.03.2016 13:40 4,6 C 87 % 995,5 hPa 0,0 l/m 3,4 km/h (1 Bft) W 275 0 min 0,000 mm 0,9 UV-I 142 W/m 2,6 C 4,6 C 9,7 km/h (2 Bft)
05.03.2016 13:45 4,6 C 87 % 995,2 hPa 0,0 l/m 3,5 km/h (1 Bft) W-SW 246 0 min 0,000 mm 0,6 UV-I 83 W/m 2,6 C 4,6 C 12,9 km/h (3 Bft)
05.03.2016 13:50 4,5 C 87 % 995,2 hPa 0,0 l/m 2,0 km/h (1 Bft) W 279 0 min 0,000 mm 0,3 UV-I 62 W/m 2,5 C 4,5 C 6,4 km/h (2 Bft)
05.03.2016 13:55 4,5 C 88 % 995,4 hPa 0,0 l/m 1,8 km/h (1 Bft) W-SW 257 0 min 0,000 mm 0,4 UV-I 65 W/m 2,7 C 4,5 C 12,9 km/h (3 Bft)
05.03.2016 14:00 4,5 C 88 % 995,3 hPa 0,0 l/m 1,7 km/h (1 Bft) W-SW 245 0 min 0,000 mm 0,6 UV-I 84 W/m 2,7 C 4,5 C 4,8 km/h (1 Bft)
05.03.2016 14:05 4,4 C 87 % 995,5 hPa 0,0 l/m 1,6 km/h (1 Bft) W-SW 242 0 min 0,051 mm 0,6 UV-I 97 W/m 2,4 C 4,4 C 4,8 km/h (1 Bft)
05.03.2016 14:10 4,4 C 87 % 995,3 hPa 0,0 l/m 1,1 km/h (1 Bft) W-NW 300 0 min 0,000 mm 0,8 UV-I 137 W/m 2,4 C 4,4 C 4,8 km/h (1 Bft)
05.03.2016 14:15 4,6 C 87 % 995,4 hPa 0,0 l/m 1,2 km/h (1 Bft) W 275 0 min 0,000 mm 0,8 UV-I 138 W/m 2,6 C 4,6 C 4,8 km/h (1 Bft)
05.03.2016 14:20 4,6 C 87 % 995,4 hPa 0,0 l/m 0,2 km/h (0 Bft) W-SW 249 0 min 0,000 mm 0,6 UV-I 104 W/m 2,6 C 4,6 C 3,2 km/h (1 Bft)
05.03.2016 14:25 4,7 C 88 % 995,5 hPa 0,0 l/m 0,0 km/h (0 Bft) S 169 0 min 0,000 mm 0,6 UV-I 96 W/m 2,9 C 4,7 C 0,0 km/h (0 Bft)
05.03.2016 14:30 4,7 C 88 % 995,5 hPa 0,0 l/m 0,0 km/h (0 Bft) S 169 0 min 0,000 mm 0,5 UV-I 82 W/m 2,9 C 4,7 C 0,0 km/h (0 Bft)
05.03.2016 14:35 4,8 C 88 % 995,6 hPa 0,0 l/m 0,0 km/h (0 Bft) SW 228 0 min 0,000 mm 0,2 UV-I 69 W/m 3,0 C 4,8 C 0,0 km/h (0 Bft)
05.03.2016 14:40 4,8 C 88 % 995,6 hPa 0,0 l/m 0,3 km/h (0 Bft) SW 234 0 min 0,000 mm 0,6 UV-I 90 W/m 3,0 C 4,8 C 3,2 km/h (1 Bft)
05.03.2016 14:45 4,7 C 87 % 995,6 hPa 0,0 l/m 1,0 km/h (0 Bft) W 279 0 min 0,000 mm 0,5 UV-I 93 W/m 2,7 C 4,7 C 4,8 km/h (1 Bft)
05.03.2016 14:50 4,7 C 86 % 995,6 hPa 0,0 l/m 1,4 km/h (1 Bft) SW 219 0 min 0,000 mm 0,5 UV-I 100 W/m 2,6 C 4,7 C 6,4 km/h (2 Bft)
05.03.2016 14:55 4,7 C 86 % 995,5 hPa 0,0 l/m 0,6 km/h (0 Bft) W 259 0 min 0,000 mm 0,8 UV-I 157 W/m 2,6 C 4,7 C 3,2 km/h (1 Bft)
05.03.2016 15:00 4,8 C 87 % 995,4 hPa 0,0 l/m 0,3 km/h (0 Bft) W 279 0 min 0,000 mm 0,9 UV-I 179 W/m 2,8 C 4,8 C 3,2 km/h (1 Bft)
05.03.2016 15:05 4,9 C 87 % 995,3 hPa 0,0 l/m 0,0 km/h (0 Bft) W-NW 284 0 min 0,051 mm 0,8 UV-I 157 W/m 2,9 C 4,9 C 0,0 km/h (0 Bft)
05.03.2016 15:10 5,0 C 84 % 995,5 hPa 0,0 l/m 2,1 km/h (1 Bft) W-NW 290 0 min 0,000 mm 0,7 UV-I 125 W/m 2,5 C 5,0 C 9,7 km/h (2 Bft)
05.03.2016 15:15 4,9 C 85 % 995,5 hPa 0,0 l/m 1,3 km/h (1 Bft) W-NW 286 0 min 0,000 mm 0,6 UV-I 102 W/m 2,6 C 4,9 C 4,8 km/h (1 Bft)
05.03.2016 15:20 5,1 C 86 % 995,5 hPa 0,0 l/m 0,1 km/h (0 Bft) NW 305 0 min 0,000 mm 0,5 UV-I 89 W/m 3,0 C 5,1 C 1,6 km/h (1 Bft)
05.03.2016 15:25 5,1 C 86 % 995,5 hPa 0,0 l/m 0,5 km/h (0 Bft) NW 304 0 min 0,000 mm 0,5 UV-I 86 W/m 3,0 C 5,1 C 3,2 km/h (1 Bft)
05.03.2016 15:30 5,1 C 86 % 995,5 hPa 0,0 l/m 0,0 km/h (0 Bft) NW 304 0 min 0,000 mm 0,5 UV-I 95 W/m 3,0 C 5,1 C 0,0 km/h (0 Bft)
05.03.2016 15:35 5,1 C 85 % 995,4 hPa 0,0 l/m 0,0 km/h (0 Bft) W-NW 303 0 min 0,000 mm 0,5 UV-I 84 W/m 2,8 C 5,1 C 0,0 km/h (0 Bft)
05.03.2016 15:40 5,1 C 85 % 995,5 hPa 0,0 l/m 0,0 km/h (0 Bft) W-NW 298 0 min 0,000 mm 0,2 UV-I 82 W/m 2,8 C 5,1 C 0,0 km/h (0 Bft)
05.03.2016 15:45 5,1 C 85 % 995,6 hPa 0,0 l/m 0,1 km/h (0 Bft) W 269 0 min 0,000 mm 0,4 UV-I 86 W/m 2,8 C 5,1 C 3,2 km/h (1 Bft)
05.03.2016 15:50 5,1 C 85 % 995,7 hPa 0,0 l/m 0,2 km/h (0 Bft) W 273 0 min 0,000 mm 0,5 UV-I 110 W/m 2,8 C 5,1 C 3,2 km/h (1 Bft)
05.03.2016 15:55 5,1 C 85 % 995,8 hPa 0,0 l/m 0,0 km/h (0 Bft) W 273 0 min 0,000 mm 0,3 UV-I 105 W/m 2,8 C 5,1 C 0,0 km/h (0 Bft)
05.03.2016 16:00 5,1 C 84 % 995,8 hPa 0,0 l/m 0,2 km/h (0 Bft) W-NW 301 0 min 0,000 mm 0,0 UV-I 76 W/m 2,6 C 5,1 C 4,8 km/h (1 Bft)
05.03.2016 16:05 5,1 C 85 % 995,9 hPa 0,0 l/m 0,0 km/h (0 Bft) W-SW 257 0 min 0,051 mm 0,0 UV-I 67 W/m 2,8 C 5,1 C 0,0 km/h (0 Bft)
05.03.2016 16:10 5,1 C 84 % 995,9 hPa 0,0 l/m 0,0 km/h (0 Bft) W 279 0 min 0,000 mm 0,0 UV-I 44 W/m 2,6 C 5,1 C 0,0 km/h (0 Bft)
05.03.2016 16:15 5,1 C 84 % 996,0 hPa 0,0 l/m 0,0 km/h (0 Bft) W-NW 293 0 min 0,000 mm 0,0 UV-I 36 W/m 2,6 C 5,1 C 0,0 km/h (0 Bft)
05.03.2016 16:20 5,1 C 84 % 996,0 hPa 0,0 l/m 0,1 km/h (0 Bft) W-NW 300 0 min 0,000 mm 0,0 UV-I 32 W/m 2,6 C 5,1 C 3,2 km/h (1 Bft)
05.03.2016 16:25 5,0 C 84 % 996,0 hPa 0,0 l/m 0,0 km/h (0 Bft) W-NW 296 0 min 0,000 mm 0,0 UV-I 32 W/m 2,5 C 5,0 C 0,0 km/h (0 Bft)
05.03.2016 16:30 5,0 C 84 % 996,0 hPa 0,0 l/m 0,0 km/h (0 Bft) W-NW 295 0 min 0,000 mm 0,0 UV-I 40 W/m 2,5 C 5,0 C 0,0 km/h (0 Bft)
05.03.2016 16:35 5,0 C 84 % 996,0 hPa 0,0 l/m 0,0 km/h (0 Bft) W-NW 295 0 min 0,000 mm 0,0 UV-I 53 W/m 2,5 C 5,0 C 0,0 km/h (0 Bft)
05.03.2016 16:40 5,0 C 85 % 995,9 hPa 0,0 l/m 0,0 km/h (0 Bft) W-NW 298 0 min 0,000 mm 0,0 UV-I 67 W/m 2,7 C 5,0 C 0,0 km/h (0 Bft)
05.03.2016 16:45 5,1 C 85 % 995,9 hPa 0,0 l/m 0,0 km/h (0 Bft) W-NW 298 0 min 0,000 mm 0,0 UV-I 88 W/m 2,8 C 5,1 C 0,0 km/h (0 Bft)
05.03.2016 16:50 5,1 C 84 % 995,9 hPa 0,0 l/m 0,1 km/h (0 Bft) W-NW 297 0 min 0,000 mm 0,0 UV-I 93 W/m 2,6 C 5,1 C 4,8 km/h (1 Bft)
05.03.2016 16:55 5,1 C 85 % 995,9 hPa 0,0 l/m 0,4 km/h (0 Bft) W-NW 288 0 min 0,000 mm 0,0 UV-I 85 W/m 2,8 C 5,1 C 6,4 km/h (2 Bft)
05.03.2016 17:00 5,2 C 84 % 995,9 hPa 0,0 l/m 0,0 km/h (0 Bft) NW 309 0 min 0,000 mm 0,0 UV-I 85 W/m 2,7 C 5,2 C 0,0 km/h (0 Bft)
05.03.2016 17:05 5,2 C 85 % 995,9 hPa 0,0 l/m 0,0 km/h (0 Bft) NW 304 0 min 0,025 mm 0,0 UV-I 83 W/m 2,9 C 5,2 C 0,0 km/h (0 Bft)
05.03.2016 17:10 5,2 C 85 % 996,0 hPa 0,0 l/m 0,0 km/h (0 Bft) NW 304 0 min 0,000 mm 0,0 UV-I 73 W/m 2,9 C 5,2 C 0,0 km/h (0 Bft)
05.03.2016 17:15 5,2 C 85 % 996,1 hPa 0,0 l/m 0,0 km/h (0 Bft) NW 304 0 min 0,000 mm 0,0 UV-I 63 W/m 2,9 C 5,2 C 0,0 km/h (0 Bft)
05.03.2016 17:20 5,2 C 85 % 996,1 hPa 0,0 l/m 0,0 km/h (0 Bft) NW 304 0 min 0,000 mm 0,0 UV-I 70 W/m 2,9 C 5,2 C 0,0 km/h (0 Bft)
05.03.2016 17:25 5,2 C 85 % 996,0 hPa 0,0 l/m 0,3 km/h (0 Bft) NW 304 5 min 0,000 mm 0,0 UV-I 74 W/m 2,9 C 5,2 C 3,2 km/h (1 Bft)
05.03.2016 17:30 5,1 C 85 % 996,0 hPa 0,0 l/m 0,0 km/h (0 Bft) NW 304 5 min 0,000 mm 0,0 UV-I 73 W/m 2,8 C 5,1 C 0,0 km/h (0 Bft)
05.03.2016 17:35 5,1 C 84 % 996,0 hPa 0,0 l/m 0,7 km/h (0 Bft) W-NW 290 5 min 0,000 mm 0,0 UV-I 60 W/m 2,6 C 5,1 C 4,8 km/h (1 Bft)
05.03.2016 17:40 5,1 C 84 % 996,1 hPa 0,0 l/m 0,0 km/h (0 Bft) W-NW 292 5 min 0,000 mm 0,0 UV-I 54 W/m 2,6 C 5,1 C 0,0 km/h (0 Bft)
05.03.2016 17:45 5,1 C 84 % 996,1 hPa 0,0 l/m 0,0 km/h (0 Bft) NW 306 5 min 0,000 mm 0,0 UV-I 44 W/m 2,6 C 5,1 C 3,2 km/h (1 Bft)
05.03.2016 17:50 5,1 C 85 % 996,1 hPa 0,0 l/m 0,0 km/h (0 Bft) W 274 5 min 0,000 mm 0,0 UV-I 45 W/m 2,8 C 5,1 C 0,0 km/h (0 Bft)
05.03.2016 17:55 5,1 C 84 % 996,2 hPa 0,0 l/m 0,2 km/h (0 Bft) W-NW 285 5 min 0,000 mm 0,0 UV-I 33 W/m 2,6 C 5,1 C 3,2 km/h (1 Bft)
05.03.2016 18:00 4,9 C 84 % 996,3 hPa 0,0 l/m 0,5 km/h (0 Bft) W-NW 300 5 min 0,000 mm 0,0 UV-I 25 W/m 2,4 C 4,9 C 3,2 km/h (1 Bft)
05.03.2016 18:05 4,8 C 85 % 996,3 hPa 0,0 l/m 0,0 km/h (0 Bft) W-NW 300 0 min 0,026 mm 0,0 UV-I 20 W/m 2,5 C 4,8 C 0,0 km/h (0 Bft)
05.03.2016 18:10 4,7 C 85 % 996,4 hPa 0,0 l/m 0,0 km/h (0 Bft) W-NW 300 0 min 0,000 mm 0,0 UV-I 15 W/m 2,4 C 4,7 C 0,0 km/h (0 Bft)
05.03.2016 18:15 4,6 C 85 % 996,5 hPa 0,0 l/m 0,0 km/h (0 Bft) W-NW 300 0 min 0,000 mm 0,0 UV-I 10 W/m 2,3 C 4,6 C 0,0 km/h (0 Bft)
05.03.2016 18:20 4,4 C 86 % 996,6 hPa 0,0 l/m 0,0 km/h (0 Bft) W-NW 300 0 min 0,000 mm 0,0 UV-I 7 W/m 2,3 C 4,4 C 0,0 km/h (0 Bft)
05.03.2016 18:25 4,3 C 86 % 996,7 hPa 0,0 l/m 0,0 km/h (0 Bft) W-NW 300 0 min 0,000 mm 0,0 UV-I 2 W/m 2,2 C 4,3 C 0,0 km/h (0 Bft)
05.03.2016 18:30 4,2 C 86 % 996,6 hPa 0,0 l/m 0,0 km/h (0 Bft) W-NW 300 0 min 0,000 mm 0,0 UV-I 0 W/m 2,1 C 4,2 C 0,0 km/h (0 Bft)
05.03.2016 18:35 4,1 C 87 % 996,7 hPa 0,0 l/m 0,0 km/h (0 Bft) W-NW 300 0 min 0,000 mm 0,0 UV-I 0 W/m 2,1 C 4,1 C 0,0 km/h (0 Bft)
05.03.2016 18:40 4,0 C 86 % 996,7 hPa 0,0 l/m 0,0 km/h (0 Bft) W-NW 300 0 min 0,000 mm 0,0 UV-I 0 W/m 1,9 C 4,0 C 0,0 km/h (0 Bft)
05.03.2016 18:45 3,8 C 87 % 996,7 hPa 0,0 l/m 0,0 km/h (0 Bft) W-NW 300 0 min 0,000 mm 0,0 UV-I 0 W/m 1,8 C 3,8 C 0,0 km/h (0 Bft)
05.03.2016 18:50 3,7 C 87 % 996,8 hPa 0,0 l/m 0,0 km/h (0 Bft) W-NW 300 0 min 0,000 mm 0,0 UV-I 0 W/m 1,7 C 3,7 C 0,0 km/h (0 Bft)
05.03.2016 18:55 3,6 C 87 % 996,9 hPa 0,0 l/m 0,0 km/h (0 Bft) W-NW 300 0 min 0,000 mm 0,0 UV-I 0 W/m 1,6 C 3,6 C 0,0 km/h (0 Bft)
05.03.2016 19:00 3,4 C 88 % 996,9 hPa 0,0 l/m 0,0 km/h (0 Bft) W-NW 300 0 min 0,000 mm 0,0 UV-I 0 W/m 1,6 C 3,4 C 0,0 km/h (0 Bft)
05.03.2016 19:05 3,2 C 87 % 996,9 hPa 0,0 l/m 0,0 km/h (0 Bft) W-NW 300 0 min 0,000 mm 0,0 UV-I 0 W/m 1,2 C 3,2 C 0,0 km/h (0 Bft)
05.03.2016 19:10 3,0 C 88 % 996,9 hPa 0,0 l/m 0,0 km/h (0 Bft) W-NW 300 0 min 0,000 mm 0,0 UV-I 0 W/m 1,2 C 3,0 C 0,0 km/h (0 Bft)
05.03.2016 19:15 2,9 C 89 % 996,9 hPa 0,0 l/m 0,0 km/h (0 Bft) W-NW 300 0 min 0,000 mm 0,0 UV-I 0 W/m 1,3 C 2,9 C 0,0 km/h (0 Bft)
05.03.2016 19:20 2,8 C 90 % 996,9 hPa 0,0 l/m 0,0 km/h (0 Bft) W-NW 300 0 min 0,000 mm 0,0 UV-I 0 W/m 1,3 C 2,8 C 0,0 km/h (0 Bft)
05.03.2016 19:25 2,8 C 90 % 996,9 hPa 0,0 l/m 0,0 km/h (0 Bft) W-NW 300 0 min 0,000 mm 0,0 UV-I 0 W/m 1,3 C 2,8 C 0,0 km/h (0 Bft)
05.03.2016 19:30 2,8 C 91 % 996,9 hPa 0,0 l/m 0,0 km/h (0 Bft) W-NW 300 0 min 0,000 mm 0,0 UV-I 0 W/m 1,5 C 2,8 C 0,0 km/h (0 Bft)
05.03.2016 19:35 2,8 C 91 % 996,9 hPa 0,0 l/m 0,0 km/h (0 Bft) W-NW 300 0 min 0,000 mm 0,0 UV-I 0 W/m 1,5 C 2,8 C 0,0 km/h (0 Bft)
05.03.2016 19:40 2,7 C 91 % 996,9 hPa 0,0 l/m 0,0 km/h (0 Bft) W-NW 300 0 min 0,000 mm 0,0 UV-I 0 W/m 1,4 C 2,7 C 0,0 km/h (0 Bft)
05.03.2016 19:45 2,7 C 91 % 997,1 hPa 0,0 l/m 0,0 km/h (0 Bft) W-NW 300 0 min 0,000 mm 0,0 UV-I 0 W/m 1,4 C 2,7 C 0,0 km/h (0 Bft)
05.03.2016 19:50 2,6 C 92 % 997,1 hPa 0,0 l/m 0,0 km/h (0 Bft) W-NW 300 0 min 0,000 mm 0,0 UV-I 0 W/m 1,4 C 2,6 C 0,0 km/h (0 Bft)
05.03.2016 19:55 2,5 C 92 % 997,0 hPa 0,0 l/m 0,0 km/h (0 Bft) W-NW 300 0 min 0,000 mm 0,0 UV-I 0 W/m 1,3 C 2,5 C 0,0 km/h (0 Bft)
05.03.2016 20:00 2,5 C 92 % 997,0 hPa 0,0 l/m 0,0 km/h (0 Bft) W-NW 300 0 min 0,000 mm 0,0 UV-I 0 W/m 1,3 C 2,5 C 0,0 km/h (0 Bft)
05.03.2016 20:05 2,6 C 93 % 997,1 hPa 0,0 l/m 0,0 km/h (0 Bft) W-NW 300 0 min 0,000 mm 0,0 UV-I 0 W/m 1,6 C 2,6 C 0,0 km/h (0 Bft)
05.03.2016 20:10 2,6 C 93 % 997,2 hPa 0,0 l/m 0,0 km/h (0 Bft) W-NW 300 0 min 0,000 mm 0,0 UV-I 0 W/m 1,6 C 2,6 C 0,0 km/h (0 Bft)
05.03.2016 20:15 2,6 C 93 % 997,2 hPa 0,0 l/m 0,0 km/h (0 Bft) W-NW 300 0 min 0,000 mm 0,0 UV-I 0 W/m 1,6 C 2,6 C 0,0 km/h (0 Bft)
05.03.2016 20:20 2,6 C 93 % 997,3 hPa 0,0 l/m 0,0 km/h (0 Bft) W-NW 300 0 min 0,000 mm 0,0 UV-I 0 W/m 1,6 C 2,6 C 0,0 km/h (0 Bft)
05.03.2016 20:25 2,6 C 93 % 997,2 hPa 0,0 l/m 0,0 km/h (0 Bft) W-NW 300 0 min 0,000 mm 0,0 UV-I 0 W/m 1,6 C 2,6 C 0,0 km/h (0 Bft)
05.03.2016 20:30 2,6 C 93 % 997,2 hPa 0,0 l/m 0,0 km/h (0 Bft) W-NW 300 0 min 0,000 mm 0,0 UV-I 0 W/m 1,6 C 2,6 C 0,0 km/h (0 Bft)
05.03.2016 20:35 2,6 C 93 % 997,2 hPa 0,0 l/m 0,0 km/h (0 Bft) W-NW 300 0 min 0,000 mm 0,0 UV-I 0 W/m 1,6 C 2,6 C 0,0 km/h (0 Bft)
05.03.2016 20:40 2,6 C 93 % 997,2 hPa 0,0 l/m 0,0 km/h (0 Bft) W-NW 300 0 min 0,000 mm 0,0 UV-I 0 W/m 1,6 C 2,6 C 0,0 km/h (0 Bft)
05.03.2016 20:45 2,6 C 93 % 997,3 hPa 0,0 l/m 0,0 km/h (0 Bft) W-NW 300 0 min 0,000 mm 0,0 UV-I 0 W/m 1,6 C 2,6 C 0,0 km/h (0 Bft)
05.03.2016 20:50 2,6 C 93 % 997,3 hPa 0,0 l/m 0,0 km/h (0 Bft) W-NW 300 0 min 0,000 mm 0,0 UV-I 0 W/m 1,6 C 2,6 C 0,0 km/h (0 Bft)
05.03.2016 20:55 2,6 C 93 % 997,3 hPa 0,0 l/m 0,0 km/h (0 Bft) W-NW 300 0 min 0,000 mm 0,0 UV-I 0 W/m 1,6 C 2,6 C 0,0 km/h (0 Bft)
05.03.2016 21:00 2,6 C 93 % 997,2 hPa 0,0 l/m 0,0 km/h (0 Bft) W-NW 300 0 min 0,000 mm 0,0 UV-I 0 W/m 1,6 C 2,6 C 0,0 km/h (0 Bft)
05.03.2016 21:05 2,6 C 93 % 997,3 hPa 0,0 l/m 0,0 km/h (0 Bft) W-NW 300 0 min 0,000 mm 0,0 UV-I 0 W/m 1,6 C 2,6 C 0,0 km/h (0 Bft)
05.03.2016 21:10 2,6 C 93 % 997,3 hPa 0,0 l/m 0,0 km/h (0 Bft) W-NW 300 0 min 0,000 mm 0,0 UV-I 0 W/m 1,6 C 2,6 C 0,0 km/h (0 Bft)
05.03.2016 21:15 2,5 C 93 % 997,5 hPa 0,0 l/m 0,0 km/h (0 Bft) W-NW 300 0 min 0,000 mm 0,0 UV-I 0 W/m 1,5 C 2,5 C 0,0 km/h (0 Bft)
05.03.2016 21:20 2,4 C 93 % 997,4 hPa 0,0 l/m 0,0 km/h (0 Bft) W-NW 300 0 min 0,000 mm 0,0 UV-I 0 W/m 1,4 C 2,4 C 0,0 km/h (0 Bft)
05.03.2016 21:25 2,4 C 93 % 997,4 hPa 0,0 l/m 0,0 km/h (0 Bft) W-NW 300 0 min 0,000 mm 0,0 UV-I 0 W/m 1,4 C 2,4 C 0,0 km/h (0 Bft)
05.03.2016 21:30 2,3 C 93 % 997,4 hPa 0,0 l/m 0,0 km/h (0 Bft) W-NW 300 0 min 0,000 mm 0,0 UV-I 0 W/m 1,3 C 2,3 C 0,0 km/h (0 Bft)
05.03.2016 21:35 2,3 C 93 % 997,4 hPa 0,0 l/m 0,0 km/h (0 Bft) W-NW 300 0 min 0,000 mm 0,0 UV-I 0 W/m 1,3 C 2,3 C 0,0 km/h (0 Bft)
05.03.2016 21:40 2,3 C 93 % 997,4 hPa 0,0 l/m 0,0 km/h (0 Bft) W-NW 300 0 min 0,000 mm 0,0 UV-I 0 W/m 1,3 C 2,3 C 0,0 km/h (0 Bft)
05.03.2016 21:45 2,3 C 93 % 997,4 hPa 0,0 l/m 0,0 km/h (0 Bft) W-NW 300 0 min 0,000 mm 0,0 UV-I 0 W/m 1,3 C 2,3 C 0,0 km/h (0 Bft)
05.03.2016 21:50 2,2 C 93 % 997,4 hPa 0,0 l/m 0,0 km/h (0 Bft) W-NW 300 0 min 0,000 mm 0,0 UV-I 0 W/m 1,2 C 2,2 C 0,0 km/h (0 Bft)
05.03.2016 21:55 2,2 C 93 % 997,5 hPa 0,0 l/m 0,0 km/h (0 Bft) W-NW 300 0 min 0,000 mm 0,0 UV-I 0 W/m 1,2 C 2,2 C 0,0 km/h (0 Bft)
05.03.2016 22:00 2,1 C 93 % 997,6 hPa 0,0 l/m 0,0 km/h (0 Bft) W-NW 300 0 min 0,000 mm 0,0 UV-I 0 W/m 1,1 C 2,1 C 0,0 km/h (0 Bft)
05.03.2016 22:05 2,0 C 93 % 997,6 hPa 0,0 l/m 0,0 km/h (0 Bft) W-NW 300 0 min 0,000 mm 0,0 UV-I 0 W/m 1,0 C 2,0 C 0,0 km/h (0 Bft)
05.03.2016 22:10 1,9 C 93 % 997,7 hPa 0,0 l/m 0,0 km/h (0 Bft) W-NW 300 0 min 0,000 mm 0,0 UV-I 0 W/m 0,9 C 1,9 C 0,0 km/h (0 Bft)
05.03.2016 22:15 1,9 C 93 % 997,7 hPa 0,0 l/m 0,0 km/h (0 Bft) W-NW 300 0 min 0,000 mm 0,0 UV-I 0 W/m 0,9 C 1,9 C 0,0 km/h (0 Bft)
05.03.2016 22:20 1,8 C 93 % 997,8 hPa 0,0 l/m 0,0 km/h (0 Bft) W-NW 300 0 min 0,000 mm 0,0 UV-I 0 W/m 0,8 C 1,8 C 0,0 km/h (0 Bft)
05.03.2016 22:25 1,8 C 93 % 997,8 hPa 0,0 l/m 0,0 km/h (0 Bft) W-NW 300 0 min 0,000 mm 0,0 UV-I 0 W/m 0,8 C 1,8 C 0,0 km/h (0 Bft)
05.03.2016 22:30 1,7 C 93 % 997,9 hPa 0,0 l/m 0,0 km/h (0 Bft) W-NW 300 0 min 0,000 mm 0,0 UV-I 0 W/m 0,7 C 1,7 C 0,0 km/h (0 Bft)
05.03.2016 22:35 1,7 C 93 % 997,9 hPa 0,0 l/m 0,0 km/h (0 Bft) W-NW 300 0 min 0,000 mm 0,0 UV-I 0 W/m 0,7 C 1,7 C 0,0 km/h (0 Bft)
05.03.2016 22:40 1,6 C 93 % 998,0 hPa 0,0 l/m 0,0 km/h (0 Bft) W-NW 300 0 min 0,000 mm 0,0 UV-I 0 W/m 0,6 C 1,6 C 0,0 km/h (0 Bft)
05.03.2016 22:45 1,5 C 93 % 998,0 hPa 0,0 l/m 0,0 km/h (0 Bft) W-NW 296 0 min 0,000 mm 0,0 UV-I 0 W/m 0,5 C 1,5 C 0,0 km/h (0 Bft)
05.03.2016 22:50 1,4 C 94 % 998,0 hPa 0,0 l/m 0,0 km/h (0 Bft) W-NW 296 0 min 0,000 mm 0,0 UV-I 0 W/m 0,5 C 1,4 C 0,0 km/h (0 Bft)
05.03.2016 22:55 1,4 C 94 % 998,0 hPa 0,0 l/m 0,0 km/h (0 Bft) W-NW 296 0 min 0,000 mm 0,0 UV-I 0 W/m 0,5 C 1,4 C 0,0 km/h (0 Bft)
05.03.2016 23:00 1,4 C 94 % 997,9 hPa 0,0 l/m 0,0 km/h (0 Bft) W-SW 251 0 min 0,000 mm 0,0 UV-I 0 W/m 0,5 C 1,4 C 0,0 km/h (0 Bft)
05.03.2016 23:05 1,3 C 94 % 997,9 hPa 0,0 l/m 0,0 km/h (0 Bft) W-SW 251 0 min 0,000 mm 0,0 UV-I 0 W/m 0,4 C 1,3 C 0,0 km/h (0 Bft)
05.03.2016 23:10 1,3 C 95 % 997,9 hPa 0,0 l/m 0,0 km/h (0 Bft) W-SW 251 0 min 0,000 mm 0,0 UV-I 0 W/m 0,6 C 1,3 C 0,0 km/h (0 Bft)
05.03.2016 23:15 1,3 C 95 % 997,8 hPa 0,0 l/m 0,0 km/h (0 Bft) W-SW 250 0 min 0,000 mm 0,0 UV-I 0 W/m 0,6 C 1,3 C 0,0 km/h (0 Bft)
05.03.2016 23:20 1,3 C 95 % 997,9 hPa 0,0 l/m 0,0 km/h (0 Bft) W-SW 250 0 min 0,000 mm 0,0 UV-I 0 W/m 0,6 C 1,3 C 0,0 km/h (0 Bft)
05.03.2016 23:25 1,3 C 95 % 997,9 hPa 0,0 l/m 0,0 km/h (0 Bft) W-SW 250 0 min 0,000 mm 0,0 UV-I 0 W/m 0,6 C 1,3 C 0,0 km/h (0 Bft)
05.03.2016 23:30 1,4 C 95 % 997,9 hPa 0,0 l/m 0,0 km/h (0 Bft) W-SW 250 0 min 0,000 mm 0,0 UV-I 0 W/m 0,7 C 1,4 C 0,0 km/h (0 Bft)
05.03.2016 23:35 1,4 C 95 % 997,9 hPa 0,0 l/m 0,0 km/h (0 Bft) W-SW 253 0 min 0,000 mm 0,0 UV-I 0 W/m 0,7 C 1,4 C 0,0 km/h (0 Bft)
05.03.2016 23:40 1,4 C 95 % 997,8 hPa 0,0 l/m 0,0 km/h (0 Bft) W-SW 253 0 min 0,000 mm 0,0 UV-I 0 W/m 0,7 C 1,4 C 0,0 km/h (0 Bft)
05.03.2016 23:45 1,4 C 95 % 997,8 hPa 0,0 l/m 0,0 km/h (0 Bft) W-SW 253 0 min 0,000 mm 0,0 UV-I 0 W/m 0,7 C 1,4 C 0,0 km/h (0 Bft)
05.03.2016 23:50 1,4 C 95 % 997,8 hPa 0,0 l/m 0,0 km/h (0 Bft) W-SW 253 0 min 0,000 mm 0,0 UV-I 0 W/m 0,7 C 1,4 C 0,0 km/h (0 Bft)
05.03.2016 23:55 1,4 C 95 % 997,8 hPa 0,0 l/m 0,0 km/h (0 Bft) W-SW 253 0 min 0,000 mm 0,0 UV-I 0 W/m 0,7 C 1,4 C 0,0 km/h (0 Bft)
_ Min-Zeit 00:45 15:10 07:00 - 00:00 - - - - - - 23:05 00:45 00:00
Minimum _ 1,2 C 84 % 993,6 hPa - 0,0 km/h (0 Bft) - - - - - - 0,4 C 1,2 C 0,0 km/h (0 Bft)
_ Max-Zeit 17:00 10:10 22:40 00:55 13:30 - - 17:25 12:05 12:50 13:00 11:25 17:00 13:30
Maximum _ 5,2 C 97 % 998,0 hPa 0,2 l/m 5,2 km/h
W-SW (1 Bft)
- - 5 min 0,051 mm 1,2 UV-I 205 W/m 3,4 C 5,2 C 14,5 km/h
SW (3 Bft)
Durchschnitt _ 2,8 C 93 % 995,4 hPa #2,2 l/m 0,3 km/h (0 Bft) W - #40 min. #0,356 mm 0,6 UV-I 76 W/m 1,7 C 2,8 C 1,4 km/h (1 Bft)